W4FXD Weather Reports


Display with metric or nautical units.
time (UTC)temp
F
wind
direction
speed
MPH
gust
MPH
rain 1hr
in
rain 24hr
in
rain mn
in
humidity
%
barometer
mb
20260503211602 63 93 1.0 2.0 0.00 0.00 0.00 45 1018.0
20260503211057 63 134 1.0 1.0 0.00 0.00 0.00 44 1018.0
20260503210555 63 154 2.0 2.0 0.00 0.00 0.00 43 1018.0
20260503210050 63 4 1.0 2.0 0.00 0.00 0.00 41 1017.9
20260503205547 63 119 0.0 0.0 0.00 0.00 0.00 42 1018.2
20260503205043 62 85 0.0 1.0 0.00 0.00 0.00 42 1018.1
20260503204541 62 186 2.0 2.0 0.00 0.00 0.00 41 1018.5
20260503204037 62 116 0.0 1.0 0.00 0.00 0.00 41 1018.3
20260503203535 62 167 5.0 5.0 0.00 0.00 0.00 41 1018.4
20260503203032 62 167 1.0 1.0 0.00 0.00 0.00 41 1018.8
20260503202530 62 190 3.0 3.0 0.00 0.00 0.00 39 1018.6
20260503202027 62 125 2.0 2.0 0.00 0.00 0.00 42 1018.6
20260503201526 63 123 3.0 5.0 0.00 0.00 0.00 40 1018.9
20260503201022 62 173 2.0 2.0 0.00 0.00 0.00 41 1018.9
20260503200518 62 112 1.0 1.0 0.00 0.00 0.00 42 1019.0
20260503200015 62 158 3.0 3.0 0.00 0.00 0.00 41 1019.1
20260503195513 61 181 2.0 2.0 0.00 0.00 0.00 42 1019.1
20260503195009 61 129 0.0 1.0 0.00 0.00 0.00 41 1019.2
20260503194507 62 164 1.0 1.0 0.00 0.00 0.00 41 1019.3
20260503194006 62 96 2.0 2.0 0.00 0.00 0.00 43 1019.4
20260503193502 62 144 0.0 1.0 0.00 0.00 0.00 42 1019.4
20260503192958 61 195 1.0 1.0 0.00 0.00 0.00 42 1019.3
20260503192454 62 163 4.0 5.0 0.00 0.00 0.00 42 1019.4
20260503191950 61 89 1.0 1.0 0.00 0.00 0.00 43 1019.4
20260503191448 61 7 0.0 1.0 0.00 0.00 0.00 43 1019.6
20260503190943 61 174 2.0 2.0 0.00 0.00 0.00 43 1019.5
20260503190442 61 205 2.0 3.0 0.00 0.00 0.00 42 1019.5
20260503185938 61 140 1.0 2.0 0.00 0.00 0.00 42 1019.4
20260503185435 61 143 2.0 3.0 0.00 0.00 0.00 44 1019.6
20260503184934 61 105 1.0 1.0 0.00 0.00 0.00 44 1019.5
20260503184431 62 157 1.0 2.0 0.00 0.00 0.00 42 1019.8
20260503183927 62 147 2.0 2.0 0.00 0.00 0.00 44 1019.9
20260503183424 62 160 1.0 1.0 0.00 0.00 0.00 43 1019.9
20260503182921 62 151 2.0 3.0 0.00 0.00 0.00 42 1019.9
20260503182420 61 80 2.0 2.0 0.00 0.00 0.00 42 1019.7
20260503181917 60 170 2.0 3.0 0.00 0.00 0.00 42 1019.8
20260503181414 60 214 1.0 1.0 0.00 0.00 0.00 41 1020.0
20260503180910 60 162 2.0 2.0 0.00 0.00 0.00 41 1020.2
20260503180408 60 192 2.0 2.0 0.00 0.00 0.00 41 1020.3
20260503175904 60 183 1.0 2.0 0.00 0.00 0.00 44 1020.1
20260503175403 59 268 1.0 1.0 0.00 0.00 0.00 42 1020.4
20260503174858 60 155 4.0 5.0 0.00 0.00 0.00 41 1020.3
20260503174357 60 196 3.0 3.0 0.00 0.00 0.00 42 1020.5
20260503173857 60 177 2.0 2.0 0.00 0.00 0.00 40 1020.5
20260503173353 60 158 3.0 3.0 0.00 0.00 0.00 43 1020.7
20260503172850 60 168 1.0 1.0 0.00 0.00 0.00 43 1020.8
20260503172348 60 97 1.0 1.0 0.00 0.00 0.00 42 1020.4
20260503171844 60 12 1.0 1.0 0.00 0.00 0.00 43 1020.7
20260503171341 60 108 2.0 2.0 0.00 0.00 0.00 45 1020.8
20260503170838 60 41 2.0 2.0 0.00 0.00 0.00 42 1020.9
20260503170334 59 100 1.0 2.0 0.00 0.00 0.00 43 1021.0
20260503150727 57 34 1.0 1.0 0.00 0.00 0.00 48 1022.0
20260503150223 56 240 1.0 1.0 0.00 0.00 0.00 48 1021.9
20260503140147 54 58 3.0 3.0 0.00 0.00 0.00 51 1022.0
20260503131117 52 9 2.0 3.0 0.00 0.00 0.00 65 1022.1
20260503130614 51 112 1.0 1.0 0.00 0.00 0.00 66 1022.1
20260503130112 51 50 0.0 0.0 0.00 0.00 0.00 67 1022.2
20260503110505 41 54 0.0 0.0 0.00 0.00 0.00 90 1021.1
20260503090356 43 53 0.0 0.0 0.00 0.00 0.00 85 1020.0
20260503081323 44 46 0.0 0.0 0.00 0.00 0.00 84 1019.7
20260503080819 44 46 0.0 0.0 0.00 0.00 0.00 83 1019.6
20260503080317 45 46 0.0 0.0 0.00 0.00 0.00 82 1019.8
20260503072753 46 111 0.0 0.0 0.00 0.00 0.00 79 1019.1
20260503072250 46 111 0.0 0.0 0.00 0.00 0.00 78 1019.1
20260503071746 47 111 0.0 0.0 0.00 0.00 0.00 77 1019.0
20260503071244 47 108 0.0 0.0 0.00 0.00 0.00 75 1018.9
20260503070740 47 89 0.0 0.0 0.00 0.00 0.00 75 1019.0
20260503070238 47 6 1.0 2.0 0.00 0.00 0.00 74 1019.2
20260503060203 48 73 0.0 0.0 0.00 0.00 0.00 73 1018.8
20260503054650 49 101 0.0 1.0 0.00 0.00 0.00 71 1018.9
20260503054147 49 97 0.0 0.0 0.00 0.00 0.00 72 1018.8
20260503053645 49 101 0.0 0.0 0.00 0.00 0.00 72 1018.8
20260503053144 50 63 1.0 1.0 0.00 0.00 0.00 71 1018.9
20260503052639 50 65 0.0 1.0 0.00 0.00 0.00 70 1019.0
20260503052136 50 349 1.0 2.0 0.00 0.00 0.00 70 1018.6
20260503051631 50 78 0.0 0.0 0.00 0.00 0.00 70 1018.5
20260503051129 50 113 0.0 1.0 0.00 0.00 0.00 71 1018.6
20260503050626 50 110 0.0 0.0 0.00 0.00 0.00 69 1018.9
20260503050122 50 85 0.0 0.0 0.00 0.00 0.00 69 1018.8
20260503045620 50 55 0.0 0.0 0.00 0.00 0.00 71 1018.5
20260503045117 49 112 0.0 0.0 0.00 0.00 0.00 73 1018.8
20260503044613 49 126 0.0 0.0 0.00 0.00 0.00 73 1018.9
20260503044111 50 126 0.0 0.0 0.00 0.00 0.00 73 1018.8
20260503043607 50 125 0.0 0.0 0.00 0.00 0.00 72 1018.6
20260503043104 50 113 0.0 0.0 0.00 0.00 0.00 72 1018.8
20260503042601 50 93 0.0 0.0 0.00 0.00 0.00 70 1018.5
20260503042057 50 78 0.0 0.0 0.00 0.00 0.00 69 1018.5
20260503041554 50 57 0.0 0.0 0.00 0.00 0.00 68 1018.5
20260503041052 50 41 0.0 0.0 0.00 0.00 0.00 68 1018.5
20260503040549 51 16 1.0 1.0 0.00 0.00 0.00 67 1018.5
20260503040046 51 85 0.0 0.0 0.00 0.00 0.00 67 1018.4
20260503035542 51 97 0.0 0.0 0.00 0.00 0.00 67 1018.6
20260503035040 51 51 0.0 0.0 0.00 0.00 0.00 66 1018.5
20260503034537 51 51 1.0 1.0 0.00 0.00 0.00 66 1018.8
20260503034034 51 32 0.0 1.0 0.00 0.00 0.00 66 1018.6
20260503033532 51 57 2.0 2.0 0.00 0.00 0.00 66 1018.5
20260503033029 52 74 1.0 1.0 0.00 0.00 0.00 65 1018.6
20260503032528 52 118 0.0 1.0 0.00 0.00 0.00 66 1018.5
20260503032025 52 38 0.0 1.0 0.00 0.00 0.00 65 1018.6
20260503031523 52 24 1.0 1.0 0.00 0.00 0.00 65 1018.4
20260503031020 52 28 2.0 3.0 0.00 0.00 0.00 64 1018.8
20260503030516 52 17 2.0 3.0 0.00 0.00 0.00 64 1018.3
20260503030013 52 6 1.0 1.0 0.00 0.00 0.00 63 1018.4
20260503025509 52 48 1.0 1.0 0.00 0.00 0.00 64 1018.3
20260503025008 53 50 3.0 3.0 0.00 0.00 0.00 63 1018.1
20260503024503 52 88 0.0 1.0 0.00 0.00 0.00 63 1018.1
20260503024001 52 19 2.0 2.0 0.00 0.00 0.00 64 1018.2
20260503023457 52 108 0.0 1.0 0.00 0.00 0.00 63 1018.3
20260503022954 52 19 1.0 1.0 0.00 0.00 0.00 64 1018.0
20260503022450 53 84 1.0 1.0 0.00 0.00 0.00 63 1017.9
20260503021945 53 103 0.0 0.0 0.00 0.00 0.00 63 1018.0
20260503021442 53 120 2.0 2.0 0.00 0.00 0.00 63 1017.7
20260503020940 53 99 0.0 0.0 0.00 0.00 0.00 63 1017.8
20260503020437 53 92 0.0 0.0 0.00 0.00 0.00 64 1017.7
20260503015933 53 358 1.0 1.0 0.00 0.00 0.00 63 1017.5
20260503015430 53 101 0.0 0.0 0.00 0.00 0.00 64 1017.4
20260503014926 52 48 1.0 1.0 0.00 0.00 0.00 64 1017.2
20260503014423 53 29 2.0 2.0 0.00 0.00 0.00 64 1016.9
20260503013922 53 96 0.0 0.0 0.00 0.00 0.00 63 1017.0
20260503013418 53 147 1.0 1.0 0.00 0.00 0.00 63 1016.9
20260503012915 53 82 0.0 0.0 0.00 0.00 0.00 63 1016.5
20260503012414 53 49 1.0 1.0 0.00 0.00 0.00 62 1016.4
20260503011909 53 342 2.0 2.0 0.00 0.00 0.00 62 1016.4
20260503011406 53 58 0.0 0.0 0.00 0.00 0.00 62 1016.7
20260503010903 53 89 0.0 0.0 0.00 0.00 0.00 62 1016.4
20260503010400 53 78 0.0 0.0 0.00 0.00 0.00 62 1016.3
20260503005857 53 58 0.0 0.0 0.00 0.00 0.00 61 1016.3
20260503005355 53 143 0.0 0.0 0.00 0.00 0.00 61 1016.1
20260503004850 53 135 0.0 0.0 0.00 0.00 0.00 60 1016.1
20260503004348 53 3 2.0 2.0 0.00 0.00 0.00 60 1016.2
20260503003846 54 99 0.0 0.0 0.00 0.00 0.00 60 1015.7
20260503003342 54 105 0.0 0.0 0.00 0.00 0.00 59 1016.0
20260503002839 54 327 0.0 0.0 0.00 0.00 0.00 58 1015.7
20260503002336 55 27 1.0 2.0 0.00 0.00 0.00 58 1015.9
20260503001832 55 12 0.0 1.0 0.00 0.00 0.00 57 1015.7
20260503001329 55 79 0.0 0.0 0.00 0.00 0.00 56 1015.5
20260503000826 55 33 1.0 1.0 0.00 0.00 0.00 55 1015.4
20260503000325 56 126 0.0 0.0 0.00 0.00 0.00 54 1015.4
20260502235821 56 95 0.0 0.0 0.00 0.00 0.00 53 1015.1
20260502235318 57 63 1.0 2.0 0.00 0.00 0.00 52 1015.1
20260502234815 57 57 0.0 0.0 0.00 0.00 0.00 51 1015.1
20260502234311 57 54 0.0 1.0 0.00 0.00 0.00 51 1015.1
20260502233808 57 82 0.0 0.0 0.00 0.00 0.00 51 1015.2
20260502233304 58 88 0.0 0.0 0.00 0.00 0.00 51 1015.0
20260502232801 58 111 0.0 0.0 0.00 0.00 0.00 50 1015.0
20260502232258 58 142 0.0 1.0 0.00 0.00 0.00 51 1014.9
20260502231754 59 348 2.0 3.0 0.00 0.00 0.00 49 1015.0
20260502231252 59 126 0.0 0.0 0.00 0.00 0.00 51 1014.8
20260502230751 59 111 1.0 1.0 0.00 0.00 0.00 49 1014.7
20260502230248 59 145 0.0 1.0 0.00 0.00 0.00 49 1014.9
20260502225744 59 71 1.0 1.0 0.00 0.00 0.00 48 1014.8
20260502225242 59 88 1.0 1.0 0.00 0.00 0.00 47 1015.0
20260502224738 59 284 1.0 1.0 0.00 0.00 0.00 48 1015.1
20260502224234 60 85 1.0 1.0 0.00 0.00 0.00 49 1015.2
20260502223732 60 139 0.0 0.0 0.00 0.00 0.00 46 1014.9
20260502223230 60 127 0.0 0.0 0.00 0.00 0.00 45 1015.0
20260502222727 60 101 0.0 0.0 0.00 0.00 0.00 45 1014.8
20260502222224 60 96 1.0 2.0 0.00 0.00 0.00 44 1014.7
20260502221720 61 198 1.0 2.0 0.00 0.00 0.00 44 1014.7
20260502221217 60 112 3.0 3.0 0.00 0.00 0.00 44 1014.5
20260502220713 60 90 0.0 0.0 0.00 0.00 0.00 46 1014.6
20260502220209 60 111 1.0 1.0 0.00 0.00 0.00 46 1014.7
20260502215706 60 118 2.0 3.0 0.00 0.00 0.00 45 1014.6
20260502215203 60 147 1.0 2.0 0.00 0.00 0.00 46 1014.4
20260502214701 60 337 3.0 5.0 0.00 0.00 0.00 46 1014.5
20260502214158 60 180 2.0 3.0 0.00 0.00 0.00 47 1014.4
20260502213655 60 52 1.0 1.0 0.00 0.00 0.00 46 1014.5
20260502213152 60 27 1.0 2.0 0.00 0.00 0.00 45 1014.2
20260502212651 61 134 1.0 1.0 0.00 0.00 0.00 45 1014.4
20260502212148 61 64 2.0 3.0 0.00 0.00 0.00 45 1014.2